Vedro nebo bez oblaka
Vedro nebo bez oblaka
Vedro nebo bez oblaka
Vedro nebo bez oblaka
Vedro nebo bez oblaka
Vedro nebo bez oblaka
Vedro nebo bez oblaka
Vedro nebo bez oblaka
Vedro, ali nejasno
(°C)
30°
30°
28°
28°
26°
26°
24°
24°
23°
23°
22°
22°
21°
21°
20°
20°
20°
20°
(°C)
26°
25°
24°
24°
23°
23°
22°
22°
22°
JI
JI
JI
I
I
ISI
ISI
SI
SSZ
(km/h)
18-31
17-32
14-28
11-23
8-17
6-14
4-10
3-9
3-9
(mm)
0
0
0
0
0
0
0
0
0
(%)
0
0
0
0
0
0
0
0
0

Podizanje Sunca

/ 15.8°
sun-icon
UV 9
06:41
21:32
Rastući mjesec (172°)
21:34
05:38

METAR za Alcantarilla (LERI)

Vrijeme Uvjeti Temperatura/
Temperatura kondenzacije
Vjetar Vidljivost Prognoza Oblaci Pritisak Promjena Neobrađeno
VFR 29°C / 10°C 160º variable 120º to 190º 11kt 9700m - Clouds and Visibility OK 1018 No Significant change LERI 211730Z 16011KT 120V190 CAVOK 29/10 Q1018 NOSIG
VFR 30°C / 10°C 140º variable 110º to 170º 12kt 9700m - Clouds and Visibility OK 1018 No Significant change LERI 211700Z 14012KT 110V170 CAVOK 30/10 Q1018 NOSIG
VFR 30°C / 10°C 140º variable 110º to 170º 12kt 9700m - Clouds and Visibility OK 1018 No Significant change LERI 211630Z 14012KT 110V170 CAVOK 30/10 Q1018 NOSIG
VFR 30°C / 10°C 140º 15kt 9700m - Clouds and Visibility OK 1017 No Significant change LERI 211600Z 14015KT CAVOK 30/10 Q1017 NOSIG
VFR 30°C / 10°C 140º variable 110º to 170º 14kt 9700m - Few Clouds 6000ft 1017 No Significant change LERI 211530Z 14014KT 110V170 9999 FEW060 30/10 Q1017 NOSIG
VFR 31°C / 10°C 130º 14kt 9700m - Few Clouds 6000ft 1017 No Significant change LERI 211500Z 13014KT 9999 FEW060 31/10 Q1017 NOSIG
VFR 31°C / 9°C 170º variable 130º to 230º 9kt Gust 23kt 9700m - Few Clouds 6000ft 1018 No Significant change LERI 211430Z 17009G23KT 130V230 9999 FEW060 31/09 Q1018 NOSIG
VFR 31°C / 9°C 150º 4kt 9700m - Few Clouds 6000ft 1018 No Significant change LERI 211400Z 15004KT 9999 FEW060 31/09 Q1018 NOSIG
VFR 31°C / 7°C 3kt 9700m - Few Clouds 6000ft 1018 No Significant change LERI 211330Z VRB03KT 9999 FEW060 31/07 Q1018 NOSIG
VFR 31°C / 7°C 180º variable 120º to 250º 5kt 9700m - Few Clouds 6000ft 1019 No Significant change LERI 211300Z 18005KT 120V250 9999 FEW060 31/07 Q1019 NOSIG
VFR 31°C / 7°C 70º 3kt 9700m - Few Clouds 6000ft 1019 No Significant change LERI 211230Z 07003KT 9999 FEW060 31/07 Q1019 NOSIG
VFR 30°C / 7°C 290º 2kt 9700m - Few Clouds 6000ft 1019 No Significant change LERI 211200Z 29002KT 9999 FEW060 30/07 Q1019 NOSIG
VFR 30°C / 7°C 160º variable 120º to 200º 6kt 9700m - Few Clouds 6000ft 1019 No Significant change LERI 211130Z 16006KT 120V200 9999 FEW060 30/07 Q1019 NOSIG
VFR 29°C / 6°C 4kt 9700m - Clouds and Visibility OK 1020 No Significant change LERI 211100Z VRB04KT CAVOK 29/06 Q1020 NOSIG
VFR 28°C / 8°C 330º variable 260º to 040º 5kt 9700m - Clouds and Visibility OK 1020 No Significant change LERI 211030Z 33005KT 260V040 CAVOK 28/08 Q1020 NOSIG
VFR 28°C / 8°C 4kt 9700m - Clouds and Visibility OK 1020 No Significant change LERI 211000Z VRB04KT CAVOK 28/08 Q1020 NOSIG
VFR 27°C / 9°C 3kt 9700m - Clouds and Visibility OK 1020 No Significant change LERI 210930Z VRB03KT CAVOK 27/09 Q1020 NOSIG
VFR 27°C / 10°C 220º 2kt 9700m - Clouds and Visibility OK 1020 No Significant change LERI 210900Z 22002KT CAVOK 27/10 Q1020 NOSIG
VFR 26°C / 9°C 4kt 9700m - Clouds and Visibility OK 1020 No Significant change LERI 210830Z VRB04KT CAVOK 26/09 Q1020 NOSIG
VFR 25°C / 9°C 290º variable 240º to 330º 5kt 9700m - Clouds and Visibility OK 1020 No Significant change LERI 210800Z 29005KT 240V330 CAVOK 25/09 Q1020 NOSIG
VFR 24°C / 9°C 290º variable 240º to 330º 5kt 9700m - Clouds and Visibility OK 1020 No Significant change LERI 210730Z 29005KT 240V330 CAVOK 24/09 Q1020 NOSIG
VFR 24°C / 9°C 2kt 9700m - Clouds and Visibility OK 1020 No Significant change LERI 210700Z VRB02KT CAVOK 24/09 Q1020 NOSIG
VFR 22°C / 10°C 2kt 9700m - Clouds and Visibility OK 1020 No Significant change LERI 210630Z VRB02KT CAVOK 22/10 Q1020 NOSIG
VFR 20°C / 11°C 2kt 9700m - Clouds and Visibility OK 1020 No Significant change LERI 210600Z VRB02KT CAVOK 20/11 Q1020 NOSIG

VFR

29°C / 10°C

[Više]
Vjetar 160º variable 120º to 190º 11kt
Vidljivost 9700m
Prognoza -
Oblaci Clouds and Visibility OK
Pritisak 1018
Promjena No Significant change
Neobrađeno LERI 211730Z 16011KT 120V190 CAVOK 29/10 Q1018 NOSIG

VFR

30°C / 10°C

[Više]
Vjetar 140º variable 110º to 170º 12kt
Vidljivost 9700m
Prognoza -
Oblaci Clouds and Visibility OK
Pritisak 1018
Promjena No Significant change
Neobrađeno LERI 211700Z 14012KT 110V170 CAVOK 30/10 Q1018 NOSIG

VFR

30°C / 10°C

[Više]
Vjetar 140º variable 110º to 170º 12kt
Vidljivost 9700m
Prognoza -
Oblaci Clouds and Visibility OK
Pritisak 1018
Promjena No Significant change
Neobrađeno LERI 211630Z 14012KT 110V170 CAVOK 30/10 Q1018 NOSIG

VFR

30°C / 10°C

[Više]
Vjetar 140º 15kt
Vidljivost 9700m
Prognoza -
Oblaci Clouds and Visibility OK
Pritisak 1017
Promjena No Significant change
Neobrađeno LERI 211600Z 14015KT CAVOK 30/10 Q1017 NOSIG

VFR

30°C / 10°C

[Više]
Vjetar 140º variable 110º to 170º 14kt
Vidljivost 9700m
Prognoza -
Oblaci Few Clouds 6000ft
Pritisak 1017
Promjena No Significant change
Neobrađeno LERI 211530Z 14014KT 110V170 9999 FEW060 30/10 Q1017 NOSIG

VFR

31°C / 10°C

[Više]
Vjetar 130º 14kt
Vidljivost 9700m
Prognoza -
Oblaci Few Clouds 6000ft
Pritisak 1017
Promjena No Significant change
Neobrađeno LERI 211500Z 13014KT 9999 FEW060 31/10 Q1017 NOSIG

VFR

31°C / 9°C

[Više]
Vjetar 170º variable 130º to 230º 9kt Gust 23kt
Vidljivost 9700m
Prognoza -
Oblaci Few Clouds 6000ft
Pritisak 1018
Promjena No Significant change
Neobrađeno LERI 211430Z 17009G23KT 130V230 9999 FEW060 31/09 Q1018 NOSIG

VFR

31°C / 9°C

[Više]
Vjetar 150º 4kt
Vidljivost 9700m
Prognoza -
Oblaci Few Clouds 6000ft
Pritisak 1018
Promjena No Significant change
Neobrađeno LERI 211400Z 15004KT 9999 FEW060 31/09 Q1018 NOSIG

VFR

31°C / 7°C

[Više]
Vjetar 3kt
Vidljivost 9700m
Prognoza -
Oblaci Few Clouds 6000ft
Pritisak 1018
Promjena No Significant change
Neobrađeno LERI 211330Z VRB03KT 9999 FEW060 31/07 Q1018 NOSIG

VFR

31°C / 7°C

[Više]
Vjetar 180º variable 120º to 250º 5kt
Vidljivost 9700m
Prognoza -
Oblaci Few Clouds 6000ft
Pritisak 1019
Promjena No Significant change
Neobrađeno LERI 211300Z 18005KT 120V250 9999 FEW060 31/07 Q1019 NOSIG

VFR

31°C / 7°C

[Više]
Vjetar 70º 3kt
Vidljivost 9700m
Prognoza -
Oblaci Few Clouds 6000ft
Pritisak 1019
Promjena No Significant change
Neobrađeno LERI 211230Z 07003KT 9999 FEW060 31/07 Q1019 NOSIG

VFR

30°C / 7°C

[Više]
Vjetar 290º 2kt
Vidljivost 9700m
Prognoza -
Oblaci Few Clouds 6000ft
Pritisak 1019
Promjena No Significant change
Neobrađeno LERI 211200Z 29002KT 9999 FEW060 30/07 Q1019 NOSIG

VFR

30°C / 7°C

[Više]
Vjetar 160º variable 120º to 200º 6kt
Vidljivost 9700m
Prognoza -
Oblaci Few Clouds 6000ft
Pritisak 1019
Promjena No Significant change
Neobrađeno LERI 211130Z 16006KT 120V200 9999 FEW060 30/07 Q1019 NOSIG

VFR

29°C / 6°C

[Više]
Vjetar 4kt
Vidljivost 9700m
Prognoza -
Oblaci Clouds and Visibility OK
Pritisak 1020
Promjena No Significant change
Neobrađeno LERI 211100Z VRB04KT CAVOK 29/06 Q1020 NOSIG

VFR

28°C / 8°C

[Više]
Vjetar 330º variable 260º to 040º 5kt
Vidljivost 9700m
Prognoza -
Oblaci Clouds and Visibility OK
Pritisak 1020
Promjena No Significant change
Neobrađeno LERI 211030Z 33005KT 260V040 CAVOK 28/08 Q1020 NOSIG

VFR

28°C / 8°C

[Više]
Vjetar 4kt
Vidljivost 9700m
Prognoza -
Oblaci Clouds and Visibility OK
Pritisak 1020
Promjena No Significant change
Neobrađeno LERI 211000Z VRB04KT CAVOK 28/08 Q1020 NOSIG

VFR

27°C / 9°C

[Više]
Vjetar 3kt
Vidljivost 9700m
Prognoza -
Oblaci Clouds and Visibility OK
Pritisak 1020
Promjena No Significant change
Neobrađeno LERI 210930Z VRB03KT CAVOK 27/09 Q1020 NOSIG

VFR

27°C / 10°C

[Više]
Vjetar 220º 2kt
Vidljivost 9700m
Prognoza -
Oblaci Clouds and Visibility OK
Pritisak 1020
Promjena No Significant change
Neobrađeno LERI 210900Z 22002KT CAVOK 27/10 Q1020 NOSIG

VFR

26°C / 9°C

[Više]
Vjetar 4kt
Vidljivost 9700m
Prognoza -
Oblaci Clouds and Visibility OK
Pritisak 1020
Promjena No Significant change
Neobrađeno LERI 210830Z VRB04KT CAVOK 26/09 Q1020 NOSIG

VFR

25°C / 9°C

[Više]
Vjetar 290º variable 240º to 330º 5kt
Vidljivost 9700m
Prognoza -
Oblaci Clouds and Visibility OK
Pritisak 1020
Promjena No Significant change
Neobrađeno LERI 210800Z 29005KT 240V330 CAVOK 25/09 Q1020 NOSIG

VFR

24°C / 9°C

[Više]
Vjetar 290º variable 240º to 330º 5kt
Vidljivost 9700m
Prognoza -
Oblaci Clouds and Visibility OK
Pritisak 1020
Promjena No Significant change
Neobrađeno LERI 210730Z 29005KT 240V330 CAVOK 24/09 Q1020 NOSIG

VFR

24°C / 9°C

[Više]
Vjetar 2kt
Vidljivost 9700m
Prognoza -
Oblaci Clouds and Visibility OK
Pritisak 1020
Promjena No Significant change
Neobrađeno LERI 210700Z VRB02KT CAVOK 24/09 Q1020 NOSIG

VFR

22°C / 10°C

[Više]
Vjetar 2kt
Vidljivost 9700m
Prognoza -
Oblaci Clouds and Visibility OK
Pritisak 1020
Promjena No Significant change
Neobrađeno LERI 210630Z VRB02KT CAVOK 22/10 Q1020 NOSIG

VFR

20°C / 11°C

[Više]
Vjetar 2kt
Vidljivost 9700m
Prognoza -
Oblaci Clouds and Visibility OK
Pritisak 1020
Promjena No Significant change
Neobrađeno LERI 210600Z VRB02KT CAVOK 20/11 Q1020 NOSIG

TAF za Alcantarilla (LERI)

From till


Maximum Temperature 35ºC on . Minimum Temperature 19ºC on .
From till Wind 130º 10kt. Visibility 9700m. Nil Significant Cloud.
Becoming from till
Becoming from till

Neobrađeno: TAF LERI 211700Z 2118/2218 13010KT CAVOK TX35/2215Z TN19/2205Z BECMG 2120/2123 VRB02KT BECMG 2215/2217 20010KT

Radar i padaline kratka prognoza za Alcantarilla

Rominjanje
Svjetlo
Umjereno
Teško
Vrlo teško
Grmljavina

Marker lokacije postavljen je na Alcantarilla. Ova animacija prikazuje radar za oborine za odabrani vremenski raspon, kao i 2h prognozu. Narančasti križevi označavaju munje. Podatke pruža nowcast.de (dostupno u SAD-u, Europi, Australiji). Kišica ili lagani snijeg mogu biti nevidljivi za radar. Intenzitet padalina označen je bojama, u rasponu od tirkizne do crvene.

Trenutne satelitske snimke i slike kiše za Alcantarilla, Kingdom of Spain

Marker lokacije postavljen je na Alcantarilla. [Više]

Satelitske snimke u realnom vremenu kombiniraju vidljivu svjetlost tijekom dana s infracrvenim zračenjem tijekom noći. Noću slika nije tamna jer infracrveno zračenje može otkriti temperaturne razlike. Nažalost, niski oblaci i magla teško se mogu razlikovati od temperature zemlje tako da mogu biti skoro nevidljivi tijekom noći. Meteosat satelitske snimke za Europu se ažuriraju u realnom vremenu svakih 5 minuta. Snimke GOES-16/GOES-17 (Severna i Južna Amerika) and Himawari (Azija) ažuriraju se svakih 10 minuta.

Oborine se procjenjuju pomoću radara i satelita. Procjene padalina iz satelita manje su točne noću nego danju.

© 2024 meteoblue, NOAA Satellites GOES-16 and EUMETSAT. Podaci za munje osigurani od nowcast.

Nazad na vrh
×
Pozdrav,
čini se da koristite blokator oglasa.

Oglašavanje je neophodno za održavanje naše besplatne web stranice s jedinstvenim detaljima i točnošću.

Molimo Vasdostavite na popis dopuštenih www.meteoblue.com na svom blokatoru oglasa ili razmislite o kupnji jednog od naših proizvoda:

Već imate pretplatu?
U tom slučaju se prijavite.